Weather in Xalapa

Mexico     19°31′26″N   96°55′14″W
temp.,
°C
wind,
m/s
gust,
m/s
humid.,
%
clouds,
%
prec.,
mm/h
press.,
hPa
HPBL,
m
5 march, fri
fri500:00+12wsw226024 0.1 101740
03:00+13w22350 0.0 101527
06:00+14w22260 0.0 101423
09:00+21sse11250 0.0 1014183
12:00+25ese22260 0.0 10121012
15:00+24ese32360 0.0 1009886
18:00+18ese12772 0.0 1010196
21:00+14nw11951 0.0 101631
6 march, sat
sat600:00+13nw22892 0.1 101745
03:00+13nw239221 0.1 1016120
06:00+11nw348529 0.1 1018144
09:00+15nw246235 0.0 1020504
12:00+21e114732 0.0 10201102
15:00+16ese226692 0.0 1017857
18:00+13ene128693 0.1 1019307
21:00+11ene1290100 0.3 1023166
7 march, sun
sun700:00+11ene1290100 0.4 1023148
03:00+9e119491 0.0 102273
06:00+9s019284 0.0 102278
09:00+11ese117696 0.0 1024425
12:00+14e226894 0.0 1022655
15:00+14ese227297 0.0 1020636
18:00+11se129299 0.0 1021198
21:00+10se119796 0.1 102596
8 march, mon
mon800:00+10sse119598 0.1 1025120
03:00+9nw019573 0.1 102456
06:00+10ne019687 0.1 1025103
09:00+10se1195100 0.1 1027143
12:00+13ese2278100 0.3 1025452
15:00+12e2292100 0.4 1022247
18:00+11ese1297100 0.8 1023156
21:00+11e1198100 0.3 102688
9 march, tue
tue900:00+10wsw119892 0.4 102659
03:00+10sw119289 0.0 102422
06:00+9sw129276 0.1 1025121
09:00+13se126624 0.0 1025547
12:00+16se326221 0.0 1023809
15:00+15ese227166 0.1 1019649
18:00+13se228878 0.2 1020309
21:00+11s1297100 0.1 1023140